Location: Bli��� Lhota
(48.7570°N, 14.0120°E)
Time: 03:07:32
(UTC+00:00)

Cosmos 1674 - Pass Details

Date: 18 September 2020
Orbit: 494 x 517 km, 82.5° (Epoch: 24 October)

Event Time Altitude Azimuth Distance (km) Brightness Sun altitude
Rises 19:02:24 0° 351° (N) 2,654 6.8 -18.8°
Reaches altitude 10° 19:04:34 10° 353° (N) 1,762 5.8 -19.1°
Maximum altitude 19:08:26 77° 79° (E) 539 2.5 -19.7°
Enters shadow 19:09:09 56° 149° (SSE) 622 2.7 -19.8°
